Wind_Speed
11 10 10 10 10 9 9 9 9 9 9 9 9 9 9 9 9 9 8 8 10 10 11 11 11 11 12 12 12 14 16 15 13 11 14 12 9 9 5 6 15 19 18 15 16 18 15 14 13 12 11 9 7 6 9 7 5 5 6 7 7 8 6 4 5 2 1 5 5 4 6 6 4 4 4 5 6 9 7 5 5 4 4 6 12 17 22 21
13 12 11 10 10 9 9 9 9 9 9 9 9 9 9 9 9 9 9 9 9 10 10 11 11 11 11 11 12 14 15 15 15 16 16 11 7 9 8 8 16 21 19 16 19 20 16 14 14 14 10 7 7 7 9 7 6 7 6 7 8 7 3 1 2 1 1 2 4 3 4 6 4 3 4 6 8 10 8 7 7 6 8 9 13 18 21 21
14 13 12 11 10 10 9 9 10 10 9 9 9 9 9 9 8 8 9 9 9 9 10 10 10 11 10 11 13 14 14 15 13 10 7 4 7 10 10 12 18 22 18 14 18 18 15 14 15 14 10 7 7 8 9 7 7 8 7 7 8 5 2 2 2 2 1 4 3 2 3 3 4 2 4 6 9 11 9 9 8 8 10 11 13 16 19 20
14 14 13 12 11 10 10 10 10 10 9 9 9 9 9 9 8 8 9 9 9 9 9 10 10 10 10 11 13 12 12 12 4 3 2 2 5 13 13 15 21 22 14 10 14 13 11 12 14 14 10 8 7 8 10 9 7 6 7 9 5 3 5 4 4 3 1 4 4 4 4 2 4 3 3 6 9 9 8 9 8 9 12 14 14 15 18 19
14 14 14 13 12 11 10 10 10 9 9 9 9 9 9 9 9 8 9 9 9 10 9 10 10 10 11 11 11 9 8 5 3 5 2 5 1 13 15 17 22 20 11 9 12 11 11 12 13 12 9 8 9 9 10 11 7 5 9 10 4 2 6 3 4 2 2 3 4 5 4 2 3 3 3 6 8 5 3 4 3 6 12 15 15 16 17 17
14 14 14 13 13 12 11 10 10 9 9 9 9 9 9 9 9 9 9 9 9 9 9 9 9 10 10 10 9 7 7 2 4 2 3 6 2 15 16 18 23 18 11 11 12 12 13 13 12 11 9 9 10 10 10 11 8 7 8 9 6 6 6 3 2 2 2 5 5 4 4 4 5 3 2 7 3 5 3 2 0 4 11 14 14 16 16 16
15 14 14 13 13 13 12 11 10 9 9 9 9 9 9 9 9 9 9 9 8 8 9 9 9 9 8 8 6 7 8 3 3 2 5 3 6 16 16 19 22 16 13 13 13 12 12 13 13 11 9 9 10 12 10 10 10 10 8 7 9 8 8 7 5 4 4 6 5 4 5 5 6 2 0 6 2 3 4 3 2 6 11 13 14 15 15 15
14 14 14 14 13 13 13 12 10 10 9 9 9 8 9 9 8 9 8 8 8 8 8 8 9 8 7 7 6 6 7 1 4 4 4 3 13 19 19 19 18 15 15 14 13 12 11 13 13 10 10 9 9 11 10 10 11 13 10 6 7 7 8 9 8 7 7 6 5 6 8 6 5 3 3 6 3 1 2 1 5 8 12 12 13 14 13 13
14 14 14 14 13 13 13 12 11 10 9 9 8 8 9 8 8 8 8 8 7 8 7 8 9 6 6 6 7 6 2 5 7 3 1 8 18 22 20 16 16 16 14 13 11 11 9 10 12 9 8 7 9 10 10 10 9 11 14 8 7 9 9 9 9 9 8 6 5 7 10 5 2 4 6 6 3 2 2 4 8 10 12 12 12 13 12 11
14 14 14 14 13 13 13 13 12 11 9 8 8 8 8 8 8 7 8 7 7 7 7 8 7 4 5 6 8 4 4 6 7 6 4 11 20 22 18 14 16 15 12 11 11 11 8 7 8 7 7 5 8 9 11 11 3 5 12 9 9 10 8 9 10 9 8 6 7 10 9 4 4 5 7 6 5 4 5 7 9 10 11 11 11 11 10 10
15 14 14 14 14 14 13 13 13 12 10 8 8 8 7 7 7 7 8 7 7 7 6 7 5 3 5 6 7 4 4 4 5 6 4 12 19 19 15 14 16 14 11 10 10 11 8 5 5 5 4 5 8 9 10 9 2 2 7 8 10 11 9 10 11 10 8 7 9 10 8 4 6 8 6 7 7 6 7 9 10 10 10 10 10 10 9 9
15 15 14 14 14 14 13 13 13 12 11 9 8 7 7 7 7 7 7 6 6 5 5 5 3 3 6 6 7 5 0 1 2 3 4 10 14 13 10 13 14 11 10 10 10 10 6 4 7 8 3 5 8 7 7 8 5 4 6 8 10 10 11 13 12 9 8 7 7 7 7 7 10 10 5 8 8 7 8 9 10 9 9 9 9 9 8 9
15 15 15 15 14 14 14 13 12 13 12 10 9 7 7 7 6 6 6 5 4 4 5 4 3 4 6 6 3 4 4 3 3 1 5 9 10 8 8 10 10 8 7 7 8 9 6 4 8 7 3 5 7 4 3 7 7 7 7 8 8 8 10 13 12 8 9 5 6 7 8 8 13 13 8 9 9 9 9 9 10 9 8 8 9 9 9 9
15 15 15 15 15 15 14 14 13 13 13 11 9 8 7 6 6 6 5 4 4 5 5 3 3 3 5 6 2 5 8 5 5 6 8 10 8 7 9 10 8 6 5 5 4 7 8 5 5 5 4 5 2 4 5 8 7 8 8 7 7 7 7 11 11 10 11 5 7 10 7 7 12 14 11 9 10 11 10 10 10 9 8 8 9 9 9 8
15 15 15 15 15 15 15 14 14 13 13 12 10 8 8 7 6 5 3 3 4 3 3 3 4 4 6 6 3 4 7 5 7 9 11 12 10 8 10 11 8 6 5 4 3 5 8 7 5 5 6 3 2 6 8 7 7 8 7 7 8 8 5 10 10 11 11 6 9 12 7 7 8 13 12 9 10 11 10 10 9 9 9 8 9 9 9 9
16 16 16 16 16 15 15 14 14 13 14 13 11 9 8 7 4 2 1 2 4 2 3 3 4 5 6 2 2 2 4 5 5 7 11 12 9 8 12 12 9 7 6 5 4 5 8 8 5 3 4 5 6 8 7 6 7 7 8 7 8 9 7 7 10 11 10 6 11 12 9 6 5 11 10 9 10 11 9 10 10 9 9 8 9 9 9 9
17 16 16 16 16 16 15 15 14 14 14 14 12 8 6 3 2 1 1 2 2 2 4 4 2 5 6 2 2 3 4 2 2 6 10 10 6 9 14 11 9 9 8 6 5 7 8 7 4 2 5 7 7 8 7 7 7 7 8 8 7 9 9 6 9 10 9 8 11 12 10 7 4 8 10 10 10 11 10 10 10 8 8 8 9 9 9 9
17 17 16 16 16 16 15 15 15 14 14 14 10 5 2 1 4 2 1 3 2 4 5 3 2 4 4 4 4 2 3 1 4 7 9 9 7 11 14 9 9 10 10 8 7 8 8 6 5 5 6 7 6 8 8 7 7 8 9 8 6 8 9 7 6 9 11 11 11 11 11 11 6 7 9 10 10 10 9 8 9 9 8 8 9 9 9 9
17 17 17 17 16 16 15 15 15 14 15 13 6 3 2 3 3 3 4 4 4 4 4 3 6 5 3 3 5 2 0 2 5 7 10 11 10 11 11 9 11 12 10 9 8 8 7 6 6 6 7 8 9 10 8 4 5 8 9 8 8 7 9 9 5 6 6 8 10 11 10 11 10 8 10 10 10 9 8 8 8 8 8 8 9 9 8 9
17 17 17 17 16 17 16 15 15 14 14 10 4 2 1 1 3 3 5 7 9 10 11 6 9 10 8 5 3 3 3 5 5 7 12 13 13 12 10 10 11 10 9 9 9 7 5 7 7 8 8 9 11 9 3 2 2 4 6 7 8 6 8 9 6 6 2 5 9 11 9 11 11 10 11 11 10 10 9 9 8 8 8 8 9 10 9 9
17 17 17 17 17 17 16 15 15 14 13 8 3 5 4 4 5 2 1 8 12 14 15 13 12 13 10 4 1 2 4 6 6 8 14 15 14 12 9 11 11 9 8 8 8 5 5 7 7 8 6 5 7 5 1 2 3 5 6 7 7 7 6 6 5 5 2 5 8 9 9 11 10 8 10 11 11 11 10 10 9 9 9 8 10 10 9 8
18 17 17 18 17 17 17 15 15 16 12 5 5 7 5 4 4 4 5 8 10 13 15 15 13 12 10 8 5 2 2 5 7 10 13 14 13 10 9 11 11 9 8 7 7 6 7 8 8 7 3 3 3 3 4 6 6 6 7 6 7 8 7 5 5 4 4 5 6 7 8 9 6 5 9 11 11 9 9 9 9 9 10 9 10 11 10 10
18 18 18 18 18 18 16 14 17 16 7 5 7 8 3 2 3 4 5 7 10 9 12 13 12 11 11 11 9 8 7 8 9 11 14 14 12 10 9 11 11 9 10 10 8 7 6 6 7 7 5 5 5 5 7 6 7 8 7 7 6 7 8 5 6 6 4 4 5 4 7 6 6 6 7 10 9 7 7 8 8 8 9 9 9 10 10 11
19 18 18 18 19 18 16 15 16 10 5 7 11 10 4 3 6 5 5 7 9 6 6 7 7 9 9 6 9 13 11 9 9 11 16 16 11 9 10 12 11 8 9 13 11 9 5 3 5 7 7 8 7 7 9 7 7 9 9 9 6 7 9 4 5 6 4 4 4 5 7 6 8 9 9 8 7 7 7 8 9 8 8 8 9 10 10 10
19 19 19 19 19 18 16 14 7 3 4 9 11 7 5 5 6 4 5 6 6 3 4 5 4 6 6 6 10 13 9 9 9 10 16 17 12 10 8 8 8 8 11 13 11 9 4 6 5 8 8 9 8 7 10 9 7 8 11 12 8 7 8 3 4 5 6 7 6 6 8 6 9 11 10 9 8 8 8 8 10 10 9 9 9 10 10 10
19 19 19 18 19 19 14 6 2 2 8 8 4 4 3 8 6 5 4 5 5 1 4 5 3 5 8 7 10 10 8 10 9 10 16 17 13 9 7 7 6 7 9 10 8 7 3 6 6 8 8 10 9 8 10 10 8 6 10 14 13 7 5 4 5 7 6 4 5 5 7 4 8 10 10 10 10 10 9 9 10 10 10 10 8 9 11 11
20 19 19 18 18 16 9 4 4 7 8 2 3 2 5 10 4 6 4 5 4 0 3 3 2 5 6 8 13 9 5 8 8 11 15 16 14 9 8 8 6 5 5 5 6 5 5 7 7 7 8 9 8 8 9 11 10 4 7 13 15 10 7 7 7 7 4 1 4 6 7 5 7 8 9 10 10 11 11 11 11 10 10 11 10 10 10 11
20 19 20 18 16 12 7 8 9 8 5 2 1 4 10 9 4 6 4 5 2 1 2 3 4 3 3 7 14 7 1 9 10 10 15 16 13 9 9 10 9 8 8 7 5 4 8 11 9 10 9 7 7 5 9 14 10 1 5 8 11 9 8 7 7 7 3 2 6 8 6 6 6 8 7 8 10 11 11 11 10 10 10 10 10 10 10 11
21 21 20 18 16 12 8 9 10 8 6 6 6 9 10 4 5 4 4 3 2 1 1 3 4 5 5 8 12 8 2 6 6 7 14 15 10 6 6 7 9 8 10 12 7 4 5 6 6 10 9 4 3 1 5 14 8 3 5 6 6 6 6 5 7 6 4 6 8 7 5 6 5 8 7 7 9 9 9 9 8 8 9 9 9 9 9 10
23 22 19 17 14 8 5 10 13 12 9 9 8 10 6 5 5 5 4 2 1 2 3 3 4 6 8 10 11 9 5 3 4 9 12 11 10 7 3 2 6 6 8 11 10 1 3 1 2 7 6 1 2 3 1 8 4 1 6 8 7 7 5 5 6 4 5 8 6 6 4 6 4 7 7 5 3 3 4 7 7 5 5 6 7 8 9 9
25 23 19 14 9 4 4 6 6 5 4 5 7 6 5 5 4 6 4 1 2 2 4 4 4 6 10 12 10 10 7 4 8 12 11 9 11 9 5 4 5 6 6 8 9 7 6 5 3 5 4 2 2 3 2 3 4 4 8 8 7 6 5 5 5 4 7 7 4 5 3 7 5 5 6 6 6 4 3 3 5 3 2 1 3 6 7 8
27 23 18 13 9 9 8 5 3 4 5 7 9 5 6 5 6 7 4 1 2 3 3 2 4 5 8 10 10 11 10 6 9 13 11 10 10 9 9 8 6 7 7 7 8 8 8 9 8 6 5 6 7 4 4 5 6 7 8 8 7 7 6 7 7 7 8 4 4 4 3 7 5 3 6 7 7 5 4 3 4 3 3 1 1 3 6 7
25 20 14 9 7 11 10 8 8 11 11 10 7 5 6 7 7 7 7 5 1 2 1 1 2 2 4 7 9 11 11 8 10 12 12 12 10 10 12 10 9 9 6 6 8 7 7 9 10 8 6 8 9 6 6 7 7 9 9 8 7 6 6 7 7 7 7 3 4 3 2 6 6 4 6 7 7 5 4 4 4 3 3 2 0 2 5 6
22 15 7 1 1 5 7 9 9 8 6 6 5 7 9 9 6 5 8 8 2 0 1 1 2 3 5 6 6 9 10 9 11 11 11 11 9 9 11 9 11 10 5 5 6 6 9 8 10 10 5 9 12 10 6 7 9 10 9 8 8 6 5 6 6 6 7 5 5 4 3 6 6 4 6 6 5 5 5 5 5 3 2 2 2 3 5 6
18 7 2 3 3 5 9 9 8 5 3 5 6 8 10 9 6 5 7 7 5 4 4 3 4 6 7 6 5 8 8 7 11 11 9 11 9 8 10 9 12 11 6 6 4 5 9 6 7 6 2 7 12 9 7 8 9 8 6 7 7 5 4 2 1 1 3 4 4 5 4 2 2 4 5 4 4 6 6 7 7 6 6 6 5 6 6 6
12 1 5 2 3 6 9 8 7 7 6 6 8 9 9 8 6 4 3 2 3 4 5 6 6 7 7 6 6 9 7 5 10 11 8 10 11 11 11 9 12 14 9 6 4 5 8 5 8 7 3 5 5 4 6 7 5 6 7 8 2 2 4 3 2 3 1 6 4 5 5 3 4 4 5 4 4 7 8 8 9 8 8 8 7 7 6 7
6 2 3 4 9 10 9 5 9 9 6 7 9 9 8 8 5 2 1 1 1 2 5 7 5 5 6 6 6 9 9 7 10 10 8 10 9 10 12 9 10 15 14 10 6 4 7 5 7 7 6 5 1 3 6 4 3 4 7 7 3 1 4 4 4 3 4 7 4 5 8 7 7 5 5 5 5 8 8 9 9 9 9 9 8 8 8 9
4 3 2 9 15 13 5 6 11 9 6 7 10 8 7 7 4 2 1 0 1 3 6 6 3 2 5 5 4 7 9 8 9 9 8 9 6 6 10 9 9 13 15 13 8 3 6 6 5 4 3 6 5 6 6 4 3 3 2 5 5 4 6 6 6 5 6 7 5 7 10 9 7 5 6 5 5 8 7 8 9 9 9 9 10 11 11 10
3 4 1 9 15 9 2 8 9 7 6 8 10 8 7 7 4 2 2 2 3 3 5 4 2 2 4 4 2 4 7 7 8 8 8 8 5 3 4 4 6 9 9 11 9 3 4 6 3 3 2 4 6 7 8 8 6 3 3 5 5 4 5 4 5 5 6 7 6 6 8 7 3 3 6 6 6 6 5 6 8 8 10 10 9 9 9 8
4 3 2 8 10 7 5 5 6 6 7 8 8 6 4 5 6 4 4 3 4 4 3 3 2 2 3 3 3 2 4 5 6 7 7 6 5 3 1 1 3 4 2 7 7 3 3 4 4 5 4 4 6 5 6 5 6 7 7 7 6 4 3 4 5 5 5 7 6 6 7 4 3 5 5 6 6 4 3 5 7 8 10 9 8 7 7 7
4 1 4 9 8 3 2 4 5 5 7 8 8 7 3 2 4 5 6 5 5 4 3 4 5 4 3 3 3 1 2 5 6 7 6 6 5 2 3 3 0 3 3 6 6 4 3 4 6 5 5 6 3 3 3 4 2 4 7 9 9 7 6 6 7 6 5 6 5 6 7 2 4 4 4 5 4 2 3 6 8 9 9 9 8 8 8 7
3 1 4 12 9 4 5 4 4 3 6 5 4 6 3 2 4 4 4 5 6 5 3 5 7 6 6 6 5 3 3 5 6 6 7 7 3 3 3 3 2 2 2 3 2 1 0 2 5 6 5 3 5 7 3 3 3 3 4 5 7 8 8 9 8 6 6 6 4 6 6 2 5 4 4 5 4 4 6 7 10 10 9 10 10 10 9 9
4 3 4 12 8 5 5 3 3 3 5 2 2 4 3 3 6 6 3 4 5 5 4 5 6 6 6 5 5 6 5 5 5 5 6 7 5 5 2 1 2 2 1 2 4 3 1 2 6 7 5 2 5 5 3 1 2 5 3 2 3 6 6 6 5 3 5 7 5 6 7 3 5 4 5 5 6 6 6 8 10 10 10 11 11 12 11 10
3 2 3 12 9 3 5 2 1 3 3 2 3 4 4 3 3 5 5 2 1 2 4 4 4 3 3 2 4 6 4 4 5 3 3 4 4 5 2 2 2 1 3 3 3 2 1 1 4 7 7 6 6 6 5 4 4 4 1 1 2 3 3 3 3 3 6 9 9 9 6 3 5 4 5 6 8 8 7 8 9 10 10 11 11 11 10 10
1 0 2 8 10 4 1 3 3 3 3 3 3 2 3 3 1 3 1 1 4 2 2 2 1 2 3 3 5 5 4 4 3 1 2 3 5 5 3 3 5 4 5 6 6 3 1 2 2 5 7 7 7 5 3 4 4 3 2 2 2 2 3 4 6 8 8 9 10 10 4 5 6 6 8 7 9 9 8 9 9 9 11 11 11 10 10 10
1 2 2 3 6 6 5 5 4 3 2 3 2 2 2 4 4 3 2 3 4 3 2 2 2 3 4 4 6 5 4 4 3 2 3 4 5 4 4 4 5 5 9 12 11 6 2 3 3 3 2 2 2 4 4 1 4 5 4 4 3 1 2 4 7 9 6 6 8 5 5 10 8 8 9 7 8 9 8 10 10 10 10 11 11 10 10 10
1 2 4 3 3 4 4 6 6 4 4 3 2 2 2 2 3 3 3 3 4 3 2 3 2 2 3 4 6 4 2 4 3 1 2 3 5 6 5 5 6 7 8 10 9 5 4 3 2 4 6 6 7 8 7 4 6 6 6 6 6 4 1 3 4 4 5 6 7 5 12 12 9 8 8 7 7 8 8 9 10 10 10 11 11 11 12 11
2 2 3 3 3 5 5 6 7 7 8 4 1 2 3 5 5 5 4 3 3 4 2 3 6 4 1 3 4 3 2 3 4 3 2 3 5 7 6 5 6 5 6 7 5 4 5 5 5 6 7 6 7 8 8 8 8 8 8 8 8 8 5 3 3 6 6 3 2 7 13 12 9 8 8 7 7 8 9 9 9 10 10 11 12 13 13 13
2 2 2 2 2 5 5 5 6 8 9 7 4 6 7 9 9 7 5 3 3 7 6 4 7 8 4 1 1 2 2 1 4 4 3 2 2 4 5 5 6 4 6 7 5 3 2 5 9 10 9 8 6 6 7 8 7 7 8 8 8 9 9 8 7 7 7 7 7 10 14 13 9 8 8 8 8 8 9 9 10 11 11 12 13 13 13 13
2 2 2 1 3 5 4 4 5 5 7 7 6 7 8 10 10 8 8 7 5 7 9 7 7 8 9 8 6 6 6 4 4 4 4 3 1 2 2 2 3 2 5 5 4 3 2 4 9 10 8 8 7 6 6 6 6 6 5 5 5 6 6 6 7 6 7 8 9 12 13 10 7 7 9 8 8 9 10 10 11 10 11 12 13 14 13 13
3 2 3 1 3 4 3 4 3 3 6 7 6 7 8 10 10 6 7 9 9 8 9 9 7 5 8 12 11 9 7 6 4 5 5 3 3 4 3 3 3 0 3 4 3 4 3 5 8 7 6 7 8 7 6 4 2 4 6 4 1 3 3 4 4 4 3 5 9 9 7 7 7 8 9 9 10 12 12 12 11 10 11 13 14 14 13 13
2 0 3 2 3 4 3 5 5 3 5 5 5 4 5 7 10 6 4 6 10 11 10 10 8 4 7 11 11 9 8 7 5 5 4 2 2 3 2 3 4 3 1 1 2 4 5 6 7 7 7 6 8 9 7 5 4 6 6 3 3 4 4 3 3 3 4 1 4 3 5 8 9 9 10 11 11 12 11 11 10 11 12 13 13 13 13 13
Wind_Direction
344 339 332 324 317 313 308 305 307 307 304 303 305 306 308 308 307 309 312 314 315 311 311 312 310 312 308 309 312 308 307 305 296 271 250 255 249 229 226 191 184 168 162 164 166 169 171 184 180 179 187 182 203 197 179 198 206 204 225 227 231 229 221 223 214 226 60 96 77 52 11 353 67 103 128 154 153 137 148 140 127 110 77 83 97 126 141 144
350 345 338 330 322 314 307 304 304 303 299 298 300 301 302 303 307 309 309 310 311 313 312 307 307 308 306 311 310 306 310 301 285 269 257 260 256 221 201 188 181 167 160 168 176 177 179 183 176 181 192 184 187 178 173 184 198 215 226 227 234 235 217 236 264 305 329 26 33 47 12 354 27 94 164 177 151 153 165 149 148 126 109 110 115 136 144 145
353 348 343 336 328 319 310 305 302 301 297 296 295 295 297 300 305 307 309 308 308 310 306 305 303 302 307 309 303 308 311 298 281 257 251 269 222 198 178 179 178 167 165 178 182 185 189 183 176 184 196 196 187 182 187 179 190 220 231 232 234 235 236 229 239 244 338 344 335 16 356 343 17 28 205 190 160 170 174 156 169 155 139 137 136 149 150 151
355 350 348 342 336 327 316 307 301 300 296 295 293 291 294 297 299 303 308 306 307 306 303 308 303 303 309 303 304 316 306 283 269 133 128 22 190 180 167 173 174 168 168 183 187 193 198 184 181 192 202 202 189 193 197 177 185 211 219 240 251 226 236 212 195 223 309 325 307 328 308 300 14 337 241 195 170 175 173 156 172 169 155 152 153 161 160 160
354 352 351 346 342 334 322 311 304 301 298 296 292 290 292 293 294 296 298 300 306 305 304 307 305 309 304 300 309 311 294 265 108 87 65 7 164 169 165 171 171 169 170 180 184 191 197 187 187 196 207 205 186 194 202 188 198 216 216 242 273 225 234 198 169 224 291 291 285 294 292 345 337 288 264 224 183 150 143 138 156 165 158 159 161 165 168 170
353 353 351 349 346 339 331 320 310 304 299 296 292 290 291 292 293 290 291 297 301 303 306 306 307 309 301 305 310 281 272 290 85 50 347 360 148 162 163 169 169 171 179 179 177 183 190 187 190 196 207 210 193 198 202 185 197 228 218 226 239 234 242 238 207 218 265 270 269 288 317 338 284 252 283 250 195 76 21 1 120 156 154 157 160 168 174 177
352 352 349 349 347 343 339 329 319 310 303 298 292 289 289 290 291 289 293 296 297 304 304 306 308 305 312 316 293 245 248 278 56 329 320 342 160 158 159 163 166 173 180 180 177 182 185 186 196 199 205 210 200 200 196 179 195 230 227 205 219 232 241 251 253 238 253 267 273 300 299 284 262 251 241 240 201 52 339 318 226 155 149 157 162 173 179 181
353 351 349 347 345 345 343 337 328 316 308 301 294 289 289 288 288 289 292 293 295 303 302 308 309 307 336 329 279 244 237 285 29 313 306 162 161 157 154 155 167 177 182 185 181 186 188 192 200 201 209 209 201 198 186 184 201 225 234 208 207 223 234 244 251 250 255 259 258 272 268 258 260 287 262 225 184 54 317 243 186 156 152 163 167 175 183 183
354 351 349 346 345 344 343 342 335 323 312 303 296 288 286 282 282 286 289 292 293 299 306 306 303 312 340 314 277 269 216 57 33 358 66 154 162 160 157 159 173 180 186 190 188 195 193 198 201 203 225 211 195 197 185 200 210 216 227 224 215 225 232 238 244 246 248 244 240 247 245 229 231 270 243 212 155 125 178 169 166 158 161 168 167 177 183 177
352 351 348 345 344 342 343 343 340 332 317 305 298 288 283 279 279 285 285 289 290 294 305 299 304 328 317 284 269 277 95 66 34 46 116 162 165 164 169 172 175 182 190 189 196 205 203 210 201 204 249 221 196 199 191 208 220 204 223 229 232 238 235 237 244 242 244 236 225 238 242 199 165 234 221 174 145 158 167 161 162 164 167 169 167 176 178 170
350 349 347 345 342 340 341 341 342 338 325 310 302 292 286 283 281 284 284 284 285 290 299 292 304 327 294 274 270 288 88 81 27 46 121 167 168 170 179 180 178 187 190 188 200 205 210 223 191 198 235 193 190 196 195 210 237 195 218 225 231 238 234 235 241 237 237 230 217 230 244 191 176 223 212 139 145 172 168 162 168 171 168 168 169 170 173 168
348 348 346 345 342 340 338 338 340 339 333 319 304 295 286 282 276 276 279 281 282 289 299 285 299 326 287 263 258 269 65 254 340 61 131 162 172 179 185 183 186 196 192 194 201 195 208 213 198 212 202 165 181 185 190 200 220 214 214 230 221 224 231 227 229 225 222 215 191 209 231 207 197 215 183 131 150 167 171 170 168 174 169 167 168 167 172 169
348 346 345 344 341 340 338 336 336 337 336 325 308 299 288 279 273 270 270 273 276 282 288 281 291 299 277 270 248 232 243 256 272 196 159 166 177 189 190 184 191 206 206 212 201 188 198 196 213 226 210 203 182 130 152 177 208 216 213 241 223 219 229 216 212 206 211 198 160 198 231 214 203 203 167 143 166 169 173 179 171 174 169 166 169 169 171 169
346 345 343 342 341 339 337 335 334 335 334 329 313 300 294 285 276 271 265 267 269 265 259 257 279 260 258 276 245 237 254 259 255 217 178 173 170 171 180 184 192 201 211 223 195 184 194 193 231 233 204 240 186 126 177 176 200 212 205 229 230 238 217 186 190 196 202 175 167 208 238 230 199 181 165 158 173 178 182 181 175 174 169 167 170 172 167 157
344 344 341 340 341 338 336 334 333 333 333 332 318 301 293 283 275 268 261 262 266 261 236 236 252 245 264 264 226 263 261 235 228 208 186 179 170 162 169 177 182 181 185 187 167 178 193 197 226 218 180 216 213 186 195 182 196 208 207 213 218 235 197 165 177 198 204 168 180 210 233 238 188 154 159 165 175 187 191 182 177 176 169 167 169 173 163 141
342 342 340 339 339 338 336 333 332 331 331 330 319 307 296 282 271 271 269 228 247 216 196 236 225 241 282 270 153 265 224 195 202 189 184 185 184 168 158 162 164 169 175 167 163 170 187 201 221 250 195 188 201 201 196 188 196 201 216 222 205 213 212 175 171 195 212 172 182 212 235 238 149 138 160 170 180 190 194 186 179 176 169 170 173 175 170 151
341 340 339 337 337 337 336 332 331 330 328 329 324 317 304 282 150 124 111 165 236 199 216 260 234 240 269 265 218 200 162 149 143 161 177 187 193 162 152 158 160 161 163 154 163 169 179 199 200 228 218 204 203 203 201 199 197 192 210 225 205 209 223 192 161 177 200 198 198 208 232 244 138 137 168 175 186 193 197 190 177 176 174 175 177 181 180 168
340 338 337 335 335 335 334 331 329 328 327 330 332 331 328 94 116 121 167 172 177 188 216 244 236 240 226 226 248 173 121 95 132 150 165 168 173 164 159 162 157 158 159 154 169 180 181 197 206 202 196 203 206 203 210 207 200 194 199 214 205 209 226 214 163 157 181 205 214 204 217 237 207 160 173 180 190 197 198 191 178 176 177 179 184 187 184 177
338 336 336 334 333 332 332 330 327 326 327 332 346 4 50 108 140 180 193 191 190 218 257 192 199 264 313 238 248 244 235 149 149 156 160 157 158 163 162 158 159 165 166 161 174 186 186 191 208 214 193 192 200 208 222 224 216 205 196 211 211 199 213 215 157 127 177 206 212 211 215 230 223 191 183 182 186 196 195 186 183 179 178 184 188 191 189 186
337 336 334 332 332 331 329 327 324 323 325 332 336 301 241 212 245 197 183 211 221 252 284 258 223 263 292 275 241 220 196 186 195 175 163 160 155 157 158 159 167 176 180 172 166 175 203 202 200 212 205 191 196 212 257 341 284 219 199 214 218 205 204 201 158 114 176 230 216 218 223 230 230 202 183 179 181 193 193 187 190 186 181 184 190 193 190 189
336 335 333 331 331 329 327 325 320 317 317 316 277 260 279 314 311 339 291 243 233 241 260 262 251 255 264 266 166 161 182 194 198 168 164 168 164 162 158 166 175 180 186 170 145 152 212 217 206 206 201 174 187 206 269 270 245 226 215 212 211 217 207 173 141 122 155 242 222 209 224 231 225 198 179 178 183 193 195 193 194 190 185 185 192 194 187 184
335 334 332 331 330 327 328 323 315 314 311 285 250 261 289 334 344 346 315 281 264 245 244 251 253 251 245 236 208 180 247 217 185 160 166 177 182 183 168 177 190 174 170 170 153 170 205 221 209 183 140 115 156 189 208 220 225 223 218 215 212 211 201 141 120 147 171 238 227 194 221 224 197 189 187 185 188 191 193 197 198 194 189 186 190 193 188 180
334 333 331 330 329 326 328 322 316 313 291 225 250 266 272 2 338 303 269 282 289 258 236 239 239 235 229 226 210 198 226 227 196 167 169 183 194 196 179 185 197 171 168 189 190 189 200 211 192 157 139 165 175 188 205 214 219 223 216 217 212 191 204 186 143 160 175 243 264 221 223 207 166 178 189 190 190 181 187 200 205 202 195 190 191 193 190 183
334 335 330 328 326 325 329 323 313 302 242 236 267 265 242 313 317 285 246 271 286 262 226 226 229 231 224 206 185 192 209 220 208 171 170 187 188 187 193 192 195 181 180 197 203 212 201 113 137 159 174 196 193 189 207 218 212 215 219 226 220 185 213 229 131 153 179 203 241 234 225 201 174 180 178 179 182 176 186 201 206 205 200 193 190 195 193 190
334 334 330 328 325 325 331 323 298 249 262 270 270 245 217 300 316 259 249 277 269 230 177 185 210 218 192 158 168 185 197 208 216 175 169 191 186 173 194 195 201 200 191 195 207 226 199 99 136 182 190 205 209 201 209 221 216 207 213 229 242 211 211 218 142 179 210 193 192 221 231 196 172 181 176 167 175 183 189 200 204 199 197 195 191 194 194 193
332 331 329 327 324 328 333 320 220 278 294 272 237 181 215 312 309 222 249 285 258 188 147 181 198 167 160 167 169 172 191 201 208 173 170 193 192 182 193 182 209 221 189 187 211 239 191 133 175 196 197 208 220 223 208 212 228 211 194 212 231 230 214 216 198 208 227 194 161 215 247 198 166 179 173 167 179 185 188 202 206 197 195 198 195 193 191 192
328 328 327 323 324 331 331 306 295 296 288 251 143 185 305 320 286 202 252 270 246 119 130 168 141 145 159 173 168 168 174 155 159 170 176 189 186 194 210 179 193 222 174 181 214 222 193 180 193 205 213 217 223 224 196 201 229 207 156 194 212 213 212 216 216 221 233 138 150 208 248 229 176 167 159 168 184 187 192 202 204 199 195 195 195 192 190 189
326 325 324 319 318 315 292 286 294 278 272 317 296 295 321 320 218 198 271 273 232 98 142 114 100 147 159 167 179 196 114 136 158 173 177 187 185 196 219 198 200 198 172 197 209 162 186 199 199 205 216 220 216 208 181 197 221 105 114 193 204 204 214 216 223 226 212 217 204 195 226 233 182 146 143 173 191 192 196 197 197 198 192 190 194 193 191 187
325 323 320 316 314 306 271 259 262 254 269 287 285 308 319 287 200 220 270 264 210 140 128 113 135 171 156 162 191 217 214 173 181 153 163 185 196 212 232 215 215 195 175 212 229 117 157 210 219 214 219 216 193 78 181 201 212 81 124 178 179 189 209 216 231 225 191 231 228 178 200 240 187 152 161 184 193 189 184 180 183 193 192 192 194 192 190 185
324 320 318 316 315 309 256 244 255 265 275 274 291 314 299 215 208 236 227 237 258 117 121 161 160 163 161 167 190 204 199 176 136 142 161 180 192 209 247 230 226 210 183 218 242 221 127 129 264 230 235 286 74 59 186 210 212 145 175 173 168 182 193 210 232 231 210 227 215 164 205 257 206 169 172 167 156 139 145 149 143 152 176 193 200 196 192 185
325 320 317 308 292 266 236 244 267 286 269 286 323 313 241 202 227 237 203 241 286 150 145 172 149 157 179 183 188 192 187 149 142 162 169 173 186 197 203 194 210 216 203 214 233 228 204 196 206 211 223 264 197 144 126 189 199 210 202 187 181 186 190 205 206 212 229 226 170 139 203 246 225 173 148 117 86 60 50 102 102 90 94 149 205 205 196 187
324 323 317 296 261 234 238 252 299 291 268 311 324 278 216 201 223 231 204 187 239 175 145 149 141 163 192 198 198 193 189 169 160 175 177 178 187 193 199 197 183 197 210 204 203 208 214 218 211 191 186 218 226 188 148 173 197 212 211 197 197 196 195 209 202 206 225 213 123 128 209 230 218 124 107 97 79 58 29 26 37 21 360 17 212 207 196 189
326 327 315 294 244 227 248 280 287 277 276 293 293 231 212 219 219 218 217 218 163 83 61 124 155 175 196 207 205 193 195 185 170 181 187 188 192 193 203 208 197 206 219 199 195 192 199 215 215 206 190 205 227 219 172 176 192 205 205 201 210 207 199 209 208 212 217 177 114 127 213 222 198 112 77 72 63 51 43 41 40 20 343 345 322 185 181 182
330 327 306 325 222 241 292 305 280 272 274 263 230 204 213 224 220 208 221 229 224 33 276 245 264 241 210 216 202 185 201 199 180 184 186 188 201 199 200 207 208 219 227 196 202 206 205 206 203 208 187 182 210 231 216 188 191 204 210 212 223 226 216 220 223 226 223 191 138 145 201 223 202 119 63 58 63 60 59 60 66 70 61 70 109 137 148 157
336 334 164 89 5 313 325 305 264 237 220 219 211 207 209 214 219 221 226 233 235 239 242 248 269 250 215 211 200 192 213 211 189 196 197 194 205 202 199 203 205 216 228 208 196 211 226 217 171 171 120 176 203 224 230 216 199 198 219 223 227 240 232 221 249 303 257 225 174 175 211 232 163 107 85 82 77 71 66 68 73 74 76 86 99 106 114 124
348 47 154 103 348 324 317 284 227 196 201 212 211 211 212 215 223 226 221 239 240 240 245 237 239 244 223 201 192 191 207 214 193 198 207 204 207 206 205 201 197 206 217 214 188 193 229 215 138 143 172 195 217 219 212 236 216 179 210 220 207 284 253 228 158 96 285 250 202 182 212 183 150 144 118 114 88 70 62 63 67 69 78 86 91 99 108 114
347 186 163 13 347 329 312 249 192 187 201 216 218 219 218 218 226 238 141 91 237 239 252 238 214 235 238 214 198 182 182 195 195 198 206 204 208 211 210 205 198 206 213 221 223 210 231 217 148 174 197 165 209 232 199 241 257 200 210 205 139 50 247 242 233 185 209 237 203 184 216 203 187 179 133 120 78 57 54 60 66 72 82 89 94 101 103 104
316 220 161 10 350 332 300 185 178 187 201 216 224 229 227 220 216 222 196 123 254 237 246 243 214 243 244 227 211 175 175 187 187 196 208 197 191 203 211 209 201 208 217 224 226 201 226 227 156 172 197 138 154 214 196 190 240 271 249 189 179 222 216 208 230 223 212 227 216 199 213 214 208 182 136 119 60 47 53 66 72 77 86 92 96 96 94 97
264 224 153 15 359 357 131 167 178 194 205 211 221 225 228 227 216 211 247 265 254 250 250 246 233 253 242 239 247 167 186 201 187 195 211 197 181 194 228 224 192 199 221 227 222 189 213 237 188 147 159 154 172 209 211 191 186 230 256 203 204 245 234 211 223 230 229 232 223 206 209 213 208 118 106 94 55 43 56 75 79 82 88 90 91 96 98 101
260 237 87 19 1 26 87 166 193 203 206 210 224 222 211 231 232 223 235 256 260 255 263 263 229 234 242 250 267 199 210 233 209 204 207 186 180 167 58 356 177 165 201 223 223 203 195 238 218 156 150 198 197 207 231 219 191 201 214 208 204 212 232 241 230 230 250 245 225 217 217 197 84 59 68 69 56 41 58 95 102 98 92 90 91 98 103 101
276 242 55 10 338 328 338 237 204 201 209 213 233 232 216 252 251 226 214 231 259 258 276 282 260 262 278 257 248 207 219 240 224 218 208 185 189 158 70 21 80 139 170 202 207 203 190 221 225 193 194 216 185 76 2 325 291 233 222 218 216 211 212 230 225 211 233 251 245 238 231 159 73 44 52 58 58 92 140 124 120 116 108 102 94 87 88 93
318 52 25 358 332 276 281 247 189 212 226 216 240 243 247 287 262 243 201 206 234 238 244 263 260 264 266 261 266 263 252 246 226 224 221 197 165 85 67 33 70 128 183 170 136 43 26 221 228 221 224 202 103 85 64 4 344 282 257 242 231 223 220 231 233 207 204 229 245 251 244 131 68 44 57 65 78 127 149 135 124 125 119 110 100 90 89 90
23 62 35 1 340 247 262 250 188 218 222 219 292 249 240 252 247 245 224 207 225 222 222 242 247 252 255 261 272 261 255 257 240 237 233 200 135 80 76 110 106 94 356 84 88 53 22 230 229 222 219 159 117 128 143 114 232 229 229 258 261 246 236 246 259 231 210 218 217 235 234 147 80 52 61 78 95 116 134 128 125 127 116 106 101 95 90 89
31 64 57 17 9 251 259 296 235 230 222 236 247 215 204 229 266 261 237 224 310 235 239 247 238 255 266 262 268 262 258 256 239 237 249 202 130 83 93 182 182 103 46 50 76 116 159 283 253 221 207 199 192 190 182 181 205 216 180 71 320 290 245 239 250 244 242 231 223 236 235 123 89 80 83 89 100 107 108 110 118 121 113 106 101 95 91 92
342 358 79 32 31 40 25 1 321 285 267 249 232 212 210 188 72 353 297 56 32 356 283 281 273 282 270 241 249 253 246 254 250 220 203 164 122 84 80 159 196 180 140 116 98 102 108 29 324 245 225 219 216 212 210 194 170 131 82 69 19 293 233 232 227 226 235 222 221 242 235 115 107 103 97 97 106 109 105 101 99 103 108 106 100 98 101 103
345 13 13 35 44 52 59 30 344 302 271 247 227 2 298 193 126 43 15 51 44 27 9 358 318 260 244 231 229 225 217 229 241 214 182 150 123 91 67 110 143 141 141 134 117 101 87 59 26 350 341 327 344 8 356 338 144 124 101 81 55 356 261 259 238 234 241 222 220 223 138 129 125 110 100 97 105 109 109 106 101 102 107 102 96 97 101 102
20 19 3 349 22 37 43 35 21 358 331 287 235 355 333 189 133 72 30 33 41 27 19 32 13 255 232 230 216 200 182 192 188 145 122 109 108 108 95 100 106 100 124 140 133 125 130 123 73 56 56 45 37 35 29 54 94 90 81 73 52 40 309 246 250 296 305 254 227 149 125 130 124 110 106 105 109 109 106 107 108 109 107 101 100 101 98 96
26 48 15 325 344 27 26 18 25 22 7 359 116 39 38 68 65 46 23 16 42 21 357 44 33 15 260 243 222 181 152 155 127 82 81 99 118 134 129 109 101 115 153 158 156 158 147 150 159 133 102 82 64 49 43 58 68 62 60 59 51 50 54 65 45 8 350 300 202 122 118 116 113 117 117 113 114 109 105 108 112 112 109 105 105 102 97 94
60 82 53 304 356 52 51 14 16 29 14 7 52 47 40 56 56 44 17 359 50 32 15 49 43 33 54 55 235 126 81 96 103 78 40 52 106 151 145 122 109 141 177 162 158 186 152 144 160 152 136 130 113 82 63 58 51 46 50 47 42 47 54 65 68 55 56 68 83 101 104 100 107 122 117 114 115 110 108 110 110 111 107 103 100 98 95 92
33 42 15 85 66 55 71 41 15 37 22 7 37 39 32 44 47 42 32 25 40 28 14 34 41 36 59 68 71 79 47 16 64 60 15 12 57 62 73 92 86 146 182 162 163 208 223 163 163 155 146 154 152 129 102 71 41 22 14 9 16 30 50 69 70 62 68 84 96 101 99 99 112 118 114 118 119 113 108 101 97 98 98 97 94 90 88 85
16 4 317 331 61 21 40 58 28 38 38 25 26 17 18 28 18 19 50 42 38 30 9 5 1 16 66 66 57 55 30 359 12 12 354 359 18 20 25 24 14 358 181 162 172 202 199 166 168 180 193 186 180 175 157 116 48 319 294 283 360 32 42 61 54 19 21 107 127 123 111 118 131 127 121 120 115 108 100 92 89 85 84 87 87 84 81 77
350 45 289 286 57 19 16 56 49 52 51 36 28 15 8 8 359 5 69 46 30 28 12 354 345 358 63 50 30 13 349 332 335 337 329 339 7 26 52 50 27 13 48 142 190 197 176 160 169 199 215 192 178 182 177 175 213 255 261 223 130 117 125 102 67 14 360 76 150 136 107 120 134 135 125 116 108 100 92 87 85 80 75 75 77 78 76 72
Height
805 804 803 802 801 801 800 799 798 797 797 796 795 795 794 794 793 792 792 791 791 790 789 788 787 787 786 785 784 782 781 780 779 778 775 766 764 765 764 765 765 767 769 771 773 774 774 775 775 776 776 775 774 771 773 773 772 776 779 781 778 771 766 762 760 761 759 761 762 762 762 761 762 760 756 755 757 760 763 762 761 761 759 758 760 763 769 775
805 804 803 802 800 800 799 798 797 796 796 795 795 794 793 793 792 791 791 790 790 789 788 788 787 786 785 784 783 782 780 779 777 774 767 762 762 763 763 765 765 767 768 770 771 770 771 772 773 774 773 773 772 771 773 772 773 776 775 777 773 764 760 758 758 759 760 764 763 761 762 761 761 760 757 760 763 762 764 765 763 764 764 762 764 768 772 775
805 804 802 801 800 799 798 797 796 795 795 794 794 793 792 792 791 791 790 789 789 788 787 787 786 785 784 783 782 780 780 778 773 766 762 760 761 761 763 764 765 767 768 769 770 769 769 769 771 772 771 772 770 771 773 772 774 772 772 776 768 759 760 759 760 762 762 764 764 763 761 761 760 757 757 760 762 762 762 763 764 767 767 766 768 770 773 775
804 803 802 800 799 798 797 796 795 794 793 793 793 792 791 791 790 790 789 789 788 787 786 785 784 784 783 782 781 780 780 776 766 760 760 760 759 760 762 763 765 767 768 769 769 769 768 769 770 770 770 771 769 770 772 771 772 770 771 772 762 760 764 760 760 762 763 764 765 764 762 761 758 756 757 757 762 764 758 756 758 761 764 766 768 770 773 775
804 803 802 800 799 797 796 795 794 793 792 792 792 791 790 790 789 789 788 788 787 786 785 784 783 782 782 781 780 780 780 771 760 758 760 759 759 760 762 763 765 767 768 770 769 770 769 768 769 769 770 769 769 771 770 767 768 770 770 766 761 764 766 760 759 763 764 765 765 765 764 762 758 757 757 755 759 762 756 752 753 754 758 763 766 769 772 774
803 802 801 800 798 797 795 794 793 792 792 791 791 790 790 789 788 788 787 786 786 785 784 783 782 781 780 779 779 781 778 766 758 759 760 759 759 760 762 763 765 767 769 769 768 769 768 768 769 771 770 767 769 770 767 764 767 771 767 764 765 765 765 761 760 763 764 766 767 765 763 761 761 760 757 755 755 755 753 752 753 753 756 761 765 769 771 773
803 801 800 799 798 797 795 793 792 791 791 790 789 789 789 788 788 787 786 785 784 784 783 782 781 780 779 778 779 779 773 763 758 760 759 759 760 760 762 763 766 768 768 768 767 767 766 767 769 768 768 767 767 766 764 764 768 770 766 764 765 764 764 762 760 762 764 766 765 763 763 763 764 761 758 757 754 754 754 752 753 753 756 761 765 769 771 772
802 801 800 799 798 796 795 793 792 791 790 789 788 788 788 787 787 786 785 784 783 783 782 781 780 779 778 778 777 772 765 760 758 759 758 759 760 761 763 764 766 767 767 766 765 765 765 767 766 765 767 766 764 764 763 767 769 769 766 763 764 764 763 761 760 762 763 764 763 763 765 763 761 760 760 758 754 755 754 753 753 754 758 762 765 770 772 773
802 801 799 799 797 796 795 793 791 790 789 788 787 787 786 786 785 785 784 783 782 782 781 780 779 778 778 778 775 767 759 758 759 759 758 758 760 761 763 764 766 766 765 765 764 764 764 765 764 763 765 763 763 764 764 769 768 764 763 761 763 763 761 760 761 761 762 761 762 765 765 760 758 760 760 756 754 756 755 755 755 756 761 763 766 770 772 774
801 800 799 798 797 796 794 793 791 790 789 787 786 786 785 784 784 783 783 782 782 781 780 780 779 778 778 777 773 764 758 759 760 759 759 759 760 761 763 764 765 765 764 764 764 764 763 763 762 762 764 763 763 763 764 766 762 758 760 760 762 761 759 760 760 759 759 760 761 764 762 759 759 762 760 754 754 756 755 757 757 758 763 763 766 769 771 775
801 799 798 797 796 795 793 792 791 789 788 786 785 784 783 783 782 782 782 781 781 780 780 779 778 778 779 777 771 762 757 759 760 759 760 760 761 762 763 763 764 764 764 764 765 764 763 763 761 763 765 762 763 764 763 761 759 759 761 762 762 761 759 759 760 759 759 759 757 759 761 760 761 763 758 753 755 755 756 759 759 760 762 764 766 769 772 774
800 799 798 796 795 794 793 791 790 789 787 786 784 783 782 782 781 781 781 780 780 780 779 779 778 778 778 775 767 759 757 759 759 760 760 760 762 762 762 764 764 764 763 763 764 764 765 764 763 764 763 760 762 766 763 758 759 761 762 765 762 760 760 758 756 756 757 758 753 756 765 764 763 760 753 752 755 755 757 759 760 761 762 764 766 769 772 773
800 799 797 796 795 793 792 790 789 788 786 785 783 782 781 780 780 780 779 780 779 779 779 778 778 779 779 770 759 757 758 758 759 759 760 761 762 762 762 764 764 764 764 763 763 764 766 766 764 763 761 760 761 764 761 757 762 763 762 763 761 761 760 752 751 755 757 757 751 758 771 764 756 754 750 752 754 755 759 759 760 761 762 764 766 769 771 773
800 798 796 795 794 793 791 790 788 787 785 783 782 781 780 779 778 778 778 778 778 779 778 778 778 779 777 765 755 756 756 757 758 758 759 760 761 761 762 763 764 765 764 764 763 765 766 765 765 763 761 760 759 760 761 761 763 762 763 764 761 763 757 745 749 754 756 756 750 758 770 758 745 747 749 751 753 755 758 758 759 761 762 764 766 769 771 774
799 797 796 794 793 792 790 789 787 786 784 782 781 780 778 778 777 777 778 778 778 778 777 778 778 778 773 760 754 755 755 756 756 756 758 758 759 760 761 763 764 764 765 765 765 765 766 766 766 763 762 761 760 763 763 763 762 759 766 769 762 761 754 745 748 751 753 754 750 758 767 753 741 745 749 750 752 754 756 757 759 760 762 765 766 769 772 776
798 796 795 793 792 791 789 788 786 785 783 781 780 778 777 777 776 777 777 777 778 777 778 778 777 777 770 757 753 754 753 754 753 755 756 757 757 757 759 762 763 764 765 764 765 765 765 765 764 762 761 762 763 763 762 765 764 760 764 765 759 759 755 749 749 747 747 751 752 756 759 750 744 748 750 750 752 754 755 757 759 761 763 765 767 769 772 778
797 795 794 793 791 790 788 787 786 784 782 780 778 777 777 776 776 777 777 777 777 777 778 776 776 777 766 754 752 752 750 751 752 754 755 756 757 757 759 760 761 763 763 764 765 764 764 764 764 763 761 761 758 758 765 772 769 762 761 758 755 756 753 750 751 746 746 751 753 754 755 750 747 749 751 751 752 754 755 756 758 761 763 765 766 769 772 777
796 795 793 791 790 789 787 786 785 783 781 779 778 777 776 775 776 776 777 777 777 778 778 776 776 773 762 753 752 750 749 751 752 753 754 755 756 757 758 758 759 761 762 764 764 763 764 763 762 762 762 762 758 758 767 768 761 761 762 759 757 756 753 750 749 747 747 751 752 753 756 751 746 748 751 751 752 754 755 755 758 760 763 765 766 769 773 777
796 794 792 791 789 788 786 785 783 782 780 779 777 777 776 776 776 776 777 777 774 771 766 767 767 761 754 751 749 748 749 750 751 752 753 754 756 756 756 757 758 759 761 763 764 762 762 763 765 765 763 762 760 756 756 753 750 753 755 755 755 755 754 747 745 746 747 752 752 751 754 751 747 748 750 751 752 755 756 756 758 760 763 765 766 769 772 776
794 793 791 790 788 786 785 784 782 781 780 779 779 778 776 773 770 769 773 773 765 757 752 753 754 749 748 747 745 747 748 749 750 750 751 753 754 754 755 757 757 758 758 759 762 761 760 765 767 763 758 755 755 753 752 752 751 751 752 753 751 751 751 744 745 748 747 753 752 747 751 750 746 745 747 751 753 756 757 759 759 760 762 764 766 769 771 774
793 792 790 788 787 785 784 783 781 780 779 778 779 777 770 766 765 764 765 761 753 750 749 746 746 746 745 745 745 746 747 748 747 747 751 752 750 753 755 756 758 760 756 754 760 761 763 766 761 754 751 751 753 754 757 759 758 756 755 755 753 752 748 742 747 750 749 755 751 745 751 749 744 744 746 750 755 757 757 759 760 760 761 763 765 768 770 773
793 791 789 788 786 784 783 781 780 778 778 778 778 774 767 765 767 766 765 758 747 745 746 743 743 744 743 745 746 746 748 748 747 746 749 750 749 751 753 754 756 756 755 755 761 765 767 764 754 749 751 754 757 758 759 761 760 759 755 755 755 749 746 746 750 751 751 755 749 746 751 749 746 748 748 749 753 755 754 756 759 759 761 763 764 767 768 772
792 789 788 786 784 783 781 779 778 776 776 777 775 772 768 768 767 767 767 762 748 740 739 741 742 741 742 744 744 747 749 747 746 745 746 749 748 748 750 753 752 752 756 758 759 765 766 757 747 748 754 758 761 761 761 761 761 759 755 756 754 746 747 752 753 752 752 754 750 748 750 749 751 754 752 750 750 752 754 756 756 757 759 761 763 764 766 770
790 788 787 785 783 782 779 778 777 775 775 775 773 770 768 768 767 767 766 759 747 738 736 737 738 738 739 739 741 744 746 743 741 742 743 746 746 747 748 748 749 752 755 754 754 757 755 748 745 750 755 757 761 763 763 762 760 756 754 753 749 744 746 748 750 753 753 755 753 751 753 751 751 756 755 752 752 754 756 757 758 757 757 759 761 762 765 768
789 787 785 783 782 779 778 778 775 775 775 772 770 767 768 768 766 767 765 757 747 737 734 736 736 736 735 737 739 739 741 741 738 737 740 742 743 746 747 744 747 753 753 751 754 753 749 748 749 753 756 755 759 761 760 760 757 755 754 750 745 743 744 746 750 754 756 758 751 750 760 756 746 750 753 754 757 758 758 758 759 758 758 759 761 762 764 766
788 786 784 782 780 777 777 775 773 775 772 769 768 766 768 767 765 767 764 759 748 734 733 737 736 735 733 736 736 735 742 742 733 733 738 740 739 742 747 746 746 749 747 748 753 750 747 750 750 752 756 756 758 757 753 754 755 753 748 745 744 743 746 750 750 752 755 756 749 749 759 759 750 747 748 751 757 758 758 759 757 756 757 758 760 761 763 765
786 784 782 781 778 777 776 773 773 774 769 766 766 766 767 765 765 766 764 763 750 731 731 735 734 734 732 733 732 735 744 738 732 735 736 738 738 739 746 747 748 749 744 750 758 751 746 751 753 753 756 756 757 754 749 750 754 749 740 739 743 744 748 750 748 748 746 747 751 747 748 756 756 749 746 749 755 756 756 758 756 753 755 756 757 759 760 763
784 782 781 779 777 778 776 774 774 771 768 766 765 767 766 763 765 763 766 771 750 727 729 731 732 732 730 731 731 732 734 730 734 738 733 735 738 740 745 744 745 747 744 753 760 748 742 750 753 752 755 753 748 744 742 746 749 744 739 739 739 742 746 745 745 745 742 749 757 747 742 754 755 748 747 749 751 754 754 754 753 751 752 754 755 756 757 759
782 780 779 776 775 774 774 774 772 768 767 765 765 766 763 765 765 759 767 770 742 723 728 729 732 733 730 733 733 730 730 728 732 734 732 736 737 738 744 740 739 743 744 748 749 744 743 746 745 746 749 746 740 739 740 743 745 742 740 740 739 742 744 745 745 742 747 759 760 748 746 756 756 747 748 751 750 752 752 751 751 749 748 751 752 754 755 757
779 778 776 774 773 772 772 771 768 765 765 764 765 764 763 765 762 764 776 765 735 726 728 727 731 731 730 736 735 731 731 729 731 732 734 737 737 737 739 737 738 742 745 746 744 743 742 743 743 742 742 739 739 743 743 742 743 742 741 740 743 744 743 746 743 741 757 768 757 748 748 756 761 750 743 750 751 748 748 747 750 750 748 750 751 752 754 755
776 774 773 772 772 772 771 768 764 764 764 764 764 763 763 761 759 769 773 750 731 730 727 727 730 728 730 734 734 732 731 730 731 734 737 738 739 741 741 742 744 747 750 750 747 743 741 744 744 739 738 739 741 744 746 744 743 744 740 739 748 752 749 752 751 753 769 770 754 748 748 755 764 753 740 746 750 749 750 749 751 753 751 752 752 751 752 754
773 771 769 769 769 769 768 765 763 764 763 763 764 760 760 763 765 766 755 738 737 734 726 729 729 726 729 729 729 729 729 731 731 732 735 737 740 742 741 743 745 752 757 752 748 746 744 741 737 736 738 739 740 743 747 747 745 745 740 741 755 762 765 768 765 764 768 764 754 750 752 758 759 750 743 747 751 753 755 754 754 755 754 754 754 753 752 753
769 767 766 765 765 766 765 763 763 763 762 763 763 758 758 767 766 756 743 736 737 731 726 730 727 726 730 730 728 726 726 729 729 730 731 732 738 739 736 734 734 744 750 747 747 750 750 741 734 738 740 736 738 741 747 750 747 745 741 744 755 763 776 782 771 765 764 761 755 750 757 761 754 749 748 750 754 755 755 756 757 757 757 757 755 753 753 753
765 764 763 763 763 763 762 763 762 761 763 763 761 758 762 767 757 745 741 734 729 728 728 729 728 728 729 728 725 722 727 729 724 727 731 732 739 740 736 735 732 734 739 744 747 747 753 750 738 737 736 733 735 734 735 738 740 739 731 735 746 750 764 774 766 762 762 760 759 759 762 759 754 755 753 750 753 753 753 755 755 757 756 756 755 754 754 755
763 762 762 762 762 762 761 761 760 760 762 760 757 757 762 762 749 741 740 731 726 729 728 727 729 731 728 725 722 719 725 728 724 727 730 731 737 737 735 736 734 734 738 747 748 742 749 746 730 730 733 729 732 729 724 731 739 737 728 734 745 738 743 760 766 765 763 762 763 764 759 748 748 754 750 750 752 751 753 754 754 757 756 755 757 756 757 759
762 761 762 762 762 761 760 759 758 760 760 757 756 756 753 748 739 735 733 728 729 730 730 729 729 731 728 723 723 722 722 725 725 728 730 728 729 728 728 728 728 732 736 742 745 744 749 744 727 731 736 729 731 729 725 733 739 739 738 741 739 728 733 755 770 770 770 770 763 759 757 749 750 755 749 749 753 751 754 755 755 758 757 758 760 760 761 761
761 761 760 761 761 759 758 757 757 759 758 754 755 751 742 736 732 731 730 730 731 729 732 734 729 729 729 724 722 722 723 725 725 728 730 728 727 724 723 723 723 726 728 731 736 737 743 743 730 730 736 733 732 731 729 730 731 737 743 737 731 734 738 748 763 769 772 774 764 758 761 755 756 760 752 750 755 756 756 757 758 759 759 760 761 761 762 762
761 760 759 760 759 756 755 756 757 757 755 754 753 747 740 735 732 731 731 732 732 731 733 734 730 729 729 727 723 720 723 728 726 727 728 727 728 724 721 724 723 722 721 724 732 733 737 744 737 729 733 734 730 733 736 733 729 733 734 726 732 751 752 749 761 769 772 775 767 760 759 752 751 757 755 755 760 762 760 759 761 761 761 762 762 764 766 767
760 757 757 759 759 755 754 756 756 754 753 754 753 746 740 737 734 733 734 733 733 734 734 732 731 732 729 728 727 722 723 725 723 725 725 725 730 728 722 724 724 724 723 722 729 732 735 747 747 735 732 733 731 734 738 736 733 733 732 727 732 744 748 747 752 755 762 770 767 766 764 753 749 755 759 762 766 767 764 763 764 764 764 766 768 770 772 772
758 754 755 760 760 756 756 757 755 752 751 750 747 742 739 738 735 734 734 734 734 734 734 733 733 734 731 728 728 725 725 724 721 723 722 722 729 732 728 726 727 729 729 727 729 732 737 747 749 739 734 736 735 734 733 733 734 736 738 738 738 740 743 746 746 744 752 760 763 770 768 757 760 767 767 768 771 771 767 765 767 769 770 773 775 774 774 775
755 752 755 760 759 757 758 756 751 748 747 745 743 740 740 739 737 734 734 736 735 732 733 735 734 734 734 731 729 726 727 726 723 722 721 721 726 732 732 730 730 731 732 732 733 735 739 745 745 742 740 738 736 734 733 732 731 733 734 734 735 739 744 753 756 747 746 751 754 761 762 761 771 776 772 773 775 773 769 766 770 774 776 779 780 778 779 778
753 754 758 759 758 757 757 751 748 747 745 742 742 741 741 741 738 736 734 735 736 733 733 735 735 734 734 732 730 728 728 727 724 725 723 721 724 730 733 732 730 729 732 735 737 737 739 742 744 744 738 733 735 737 737 736 733 733 733 729 729 732 737 751 757 749 749 751 749 751 757 767 778 777 774 777 775 771 768 767 772 777 778 781 783 784 785 783
755 757 760 759 757 756 755 749 747 748 745 742 742 742 742 742 740 737 736 736 735 734 735 735 734 734 734 733 731 730 730 728 726 726 724 720 726 733 734 733 731 729 731 736 740 743 743 744 747 746 738 733 735 736 735 736 736 736 736 735 735 734 735 741 742 741 749 752 752 757 760 768 779 778 775 776 773 770 768 768 774 779 779 783 785 786 787 786
758 759 759 759 757 755 754 753 751 749 747 745 746 744 742 742 742 739 738 738 738 737 738 736 734 736 735 734 734 731 732 733 729 725 724 722 728 733 733 734 734 732 735 739 741 743 748 751 751 749 748 747 745 743 742 740 737 739 742 744 745 741 739 741 738 741 749 747 748 756 759 768 779 778 776 775 773 773 772 773 777 779 782 786 787 788 789 789
758 758 757 758 758 756 758 760 758 756 753 750 749 748 746 744 744 743 741 741 741 741 741 739 738 739 736 735 737 733 732 736 734 729 727 726 729 732 731 732 733 732 736 739 737 742 755 762 759 755 757 759 757 753 750 743 740 745 750 751 751 747 746 746 741 746 753 746 742 747 755 773 782 777 776 777 775 779 780 780 783 783 786 789 790 792 793 791
759 760 760 759 758 758 762 764 762 759 757 755 754 753 750 747 746 744 743 744 745 743 743 742 740 741 739 737 738 736 734 735 734 731 729 728 730 733 732 731 731 732 736 738 738 746 761 770 768 765 765 764 762 758 751 744 743 749 752 752 752 752 751 748 743 745 747 743 745 746 753 773 782 778 781 783 781 786 787 787 790 791 790 792 793 795 795 794
762 767 769 766 763 762 764 766 766 765 761 757 758 758 753 749 747 746 745 746 747 746 745 743 742 742 742 740 738 739 738 735 734 735 734 732 732 734 733 731 732 736 740 739 738 745 760 772 774 772 770 767 764 760 753 748 748 753 755 755 754 752 751 751 752 752 748 746 751 751 753 770 781 783 790 792 790 792 792 792 794 794 794 794 795 796 797 797
767 772 773 772 771 771 772 773 773 773 769 761 760 760 755 752 753 754 752 748 747 747 747 747 746 743 743 742 740 742 742 739 741 744 740 737 735 735 735 733 734 737 739 738 738 740 751 767 772 770 770 768 767 764 759 756 757 758 759 760 758 755 755 758 762 762 756 755 759 758 762 774 783 789 796 797 795 795 795 795 795 795 795 795 796 798 799 800
769 772 773 773 774 774 778 781 778 778 777 769 763 763 760 758 759 760 758 753 750 749 749 752 751 745 743 742 740 744 749 747 748 751 748 744 740 737 737 737 736 736 734 737 741 739 745 762 767 764 766 770 769 768 767 766 767 766 764 764 763 761 761 763 766 764 762 765 767 768 775 784 789 793 797 797 796 796 795 795 795 796 797 797 798 801 802 804
773 775 774 771 772 774 776 779 779 779 781 775 770 770 766 764 766 764 760 760 760 758 754 754 754 748 745 745 745 751 757 755 754 755 755 752 747 742 743 744 741 738 735 737 742 739 744 761 764 759 765 770 768 769 771 772 773 773 772 771 769 768 767 766 768 768 767 772 777 780 787 793 793 794 797 797 796 795 796 797 797 798 799 800 802 804 806 808
780 781 778 772 773 776 775 775 777 779 781 782 783 784 778 773 772 768 765 764 764 765 763 760 757 751 747 750 753 757 761 760 758 758 756 754 752 749 749 748 747 744 739 740 743 740 744 758 762 760 763 766 765 767 768 770 775 776 775 775 776 777 777 777 779 778 774 775 779 781 784 791 794 795 797 797 796 797 799 801 802 803 803 804 806 808 811 812
782 782 781 775 775 778 774 773 775 778 783 787 789 792 790 784 777 771 770 768 765 766 766 763 759 753 752 757 761 762 763 762 760 759 758 756 754 751 751 750 749 749 745 743 744 741 742 753 759 758 758 760 761 763 764 769 775 775 773 775 779 784 788 788 788 788 784 779 777 775 779 789 795 795 797 798 799 801 803 805 807 810 811 811 812 813 815 816